This is the latest recevied weather packets stored in our database for station/object KD9WYV. If no packets are shown the sender has not sent any weather packets the latest 10 day(s).
| Time | Temp. | Humidity | Pressure | Rain* | Wind** | Luminosity | Snow |
|---|---|---|---|---|---|---|---|
| 1777640223 | 8.33° C | 88% | 1013.4 hPa | 0 mm | - | 259 W/m² | - |
| 1777639919 | 7.78° C | 89% | 1013.5 hPa | 0 mm | - | 121 W/m² | - |
| 1777639616 | 7.78° C | 88% | 1013.5 hPa | 0 mm | - | 144 W/m² | - |
| 1777639313 | 8.33° C | 88% | 1013.3 hPa | 0 mm | - | 46 W/m² | - |
| 1777639009 | 8.89° C | 89% | 1013.2 hPa | 0 mm | - | 44 W/m² | - |
| 1777638705 | 8.89° C | 89% | 1013.3 hPa | 0 mm | - | 39 W/m² | - |
| 1777638402 | 8.89° C | 89% | 1013.3 hPa | 0 mm | - | 102 W/m² | - |
| 1777638099 | 8.89° C | 90% | 1013.2 hPa | 0 mm | - | 89 W/m² | - |
| 1777637795 | 8.33° C | 89% | 1013.2 hPa | 0 mm | - | 36 W/m² | - |
| 1777637491 | 8.89° C | 90% | 1012.9 hPa | 0 mm | - | 43 W/m² | - |
| 1777637189 | 8.89° C | 90% | 1012.8 hPa | 0 mm | - | 58 W/m² | - |
| 1777636885 | 8.89° C | 90% | 1012.5 hPa | 0 mm | - | 45 W/m² | - |
| 1777636581 | 8.89° C | 91% | 1012.7 hPa | 0 mm | - | 19 W/m² | - |
| 1777636278 | 8.89° C | 92% | 1012.7 hPa | 0 mm | - | 13 W/m² | - |
| 1777635978 | 8.89° C | 93% | 1012.5 hPa | 0 mm | - | 15 W/m² | - |
| 1777635674 | 8.89° C | 93% | 1012.4 hPa | 1.78 mm | - | 11 W/m² | - |
| 1777635371 | 8.89° C | 93% | 1012.5 hPa | 1.78 mm | - | 12 W/m² | - |
| 1777635067 | 8.89° C | 92% | 1012.6 hPa | 0 mm | - | 2 W/m² | - |
| 1777634763 | 8.89° C | 92% | 1012.6 hPa | 0 mm | - | 3 W/m² | - |
| 1777634461 | 8.89° C | 92% | 1012.2 hPa | 0 mm | - | 2 W/m² | - |
| 1777634157 | 8.89° C | 92% | 1012.3 hPa | 0 mm | - | 5 W/m² | - |
| 1777633854 | 8.89° C | 92% | 1012 hPa | 1.27 mm | - | 9 W/m² | - |
| 1777633552 | 8.89° C | 92% | 1012.4 hPa | 1.27 mm | - | 6 W/m² | - |
| 1777633250 | 8.89° C | 92% | 1012.1 hPa | 1.27 mm | - | 4 W/m² | - |
| 1777632947 | 8.89° C | 91% | 1012.3 hPa | 1.78 mm | - | 2 W/m² | - |
* Rain latest hour (hover to see other rain measurements)
** Current wind speed in m/s (hover to see current wind gust speed)